This demonstration page uses our WeatherBlox Daily Observations layout. Learn more.

38.89511, -77.03637

Hourly Observations for September 28, 2017

Temp ( °F °C ) Dew Point ( °F °C ) Humidity (%) Winds ( mph kmh ) Pressure ( in mb ) Visibility ( mi km ) Precip ( " mm )
12:52 am 00:52 Clear 78 25.6 64 17.8 62 62 NW 6 9 29.77 1008 10 16.09344 0 0
1:52 am 01:52 Clear 75 23.9 68 20 79 79 N 6 9 29.77 1008 10 16.09344 0 0
2:52 am 02:52 Clear 75 23.9 66 18.9 74 74 N 8 13 29.77 1008 10 16.09344 0 0
3:52 am 03:52 Clear 76 24.4 65 18.3 69 69 NNW 12 19 29.77 1008 10 16.09344 0 0
4:52 am 04:52 Clear 74 23.3 66 18.9 76 76 NNW 10 17 29.77 1008 10 16.09344 0 0
5:52 am 05:52 Clear 75 23.9 66 18.9 74 74 NNW 12 19 29.8 1009 10 16.09344 0 0
6:52 am 06:52 Mostly Clear 75 23.9 65 18.3 71 71 NNW 16 26 29.8 1009 10 16.09344 0 0
7:52 am 07:52 Mostly Sunny 75 23.9 65 18.3 71 71 NNW 12 19 29.83 1010 10 16.09344 0 0
8:52 am 08:52 Mostly Sunny 76 24.4 63 17.2 64 64 NW 17 28 29.83 1010 10 16.09344 0 0
9:52 am 09:52 Mostly Sunny 77 25 57 13.9 50 50 NNW 20 31 29.85 1011 10 16.09344 0 0
10:52 am 10:52 Sunny 78 25.6 56 13.3 47 47 NNW 20 31 29.85 1011 10 16.09344 0 0
11:52 am 11:52 Mostly Sunny 79 26.1 54 12.2 42 42 NNW 20 31 29.85 1011 10 16.09344 0 0
12:52 pm 12:52 Mostly Sunny 79 26.1 53 11.7 41 41 NNW 17 28 29.85 1011 10 16.09344 0 0
1:52 pm 13:52 Mostly Sunny 80 26.7 51 10.6 37 37 N 18 30 29.85 1011 10 16.09344 0 0
2:52 pm 14:52 Sunny 80 26.7 52 11.1 38 38 NW 17 28 29.85 1011 10 16.09344 0 0
3:52 pm 15:52 Sunny 80 26.7 48 8.9 33 33 NW 16 26 29.85 1011 10 16.09344 0 0
4:52 pm 16:52 Sunny 80 26.7 47 8.3 31 31 NNW 20 31 29.85 1011 10 16.09344 0 0
5:52 pm 17:52 Mostly Sunny 79 26.1 46 7.8 31 31 NW 17 28 29.88 1012 10 16.09344 0 0
6:52 pm 18:52 Mostly Sunny 76 24.4 47 8.3 36 36 NW 12 19 29.88 1012 10 16.09344 0 0
7:52 pm 19:52 Clear 74 23.3 48 8.9 40 40 NNW 12 19 29.91 1013 10 16.09344 0 0
8:52 pm 20:52 Clear 72 22.2 49 9.4 44 44 NNW 8 13 29.94 1014 10 16.09344 0 0
9:52 pm 21:52 Clear 70 21.1 50 10 49 49 N 7 11 29.97 1015 10 16.09344 0 0
10:52 pm 22:52 Mostly Clear 69 20.6 50 10 51 51 NNW 9 15 29.97 1015 10 16.09344 0 0
11:52 pm 23:52 Mostly Clear 67 19.4 50 10 55 55 N 10 17 30 1016 10 16.09344 0 0

Powered by AerisWeather